Weather History for Park Rapids, MN

Change the Weather History Date:

Saturday, January 25, 2014

  Actual Average Record
Temperature  
Mean Temperature -3 °F -  
Max Temperature 1 °F 17 °F 51 °F (1973)
Min Temperature -7 °F -4 °F -36 °F (1996)
Degree Days  
Heating Degree Days 68    
Moisture  
Dew Point -10 °F    
Average Humidity 69    
Maximum Humidity 87    
Minimum Humidity 49    
Precipitation  
Precipitation 0.03 in - - ()
Sea Level Pressure  
Sea Level Pressure 29.75 in    
Wind  
Wind Speed 15 mph (WNW)    
Max Wind Speed 24 mph    
Max Gust Speed 30 mph    
Visibility 7 miles    
Events Snow    
Averages and records for this station are not official NWS values.
T = Trace of Precipitation, MM = Missing Value Source: NWS Daily Summary

Daily Weather History Graph

Daily Weather History Graph

Search for Another Location

Airport:

Trip Planner

Search our weather history database for the weather conditions in past years. The results will help you decide how hot, cold, wet, or windy it might be!

Date:

Astronomy

Jan. 25, 2014 Rise Set
Actual Time 7:52 AM CST 5:12 PM CST
Civil Twilight 7:19 AM CST 5:46 PM CST
Nautical Twilight 6:42 AM CST 6:23 PM CST
Astronomical Twilight 6:06 AM CST 6:59 PM CST
Moon 2:24 AM CST (1/25) 12:14 PM CST (1/25)
Length of Visible Light 10h 26m
Length of Day
9h 20m
Waning Crescent, 34% of the Moon is Illuminated
Jan 25
Waning Crescent
Jan 30
New
Feb 6
First Quarter
Feb 14
Full
Feb 22
Last Quarter

Hourly Weather History & Observations

Time (CST) Temp. Windchill Dew Point Humidity Pressure Visibility Wind Dir Wind Speed Gust Speed Precip Events Conditions
12:53 AM 1.9 °F -21.2 °F -9.0 °F 60% 29.78 in 9.0 mi NNW 24.2 mph 29.9 mph 0.00 in   Clear
1:53 AM 1.0 °F -20.9 °F -9.0 °F 63% 29.80 in 9.0 mi NNW 20.7 mph 27.6 mph 0.00 in   Clear
2:53 AM -0.9 °F -19.9 °F -11.9 °F 60% 29.83 in 10.0 mi NW 13.8 mph - 0.00 in   Clear
3:53 AM -2.0 °F -25.0 °F -11.0 °F 66% 29.85 in 9.0 mi NNW 20.7 mph 26.5 mph 0.00 in   Clear
4:53 AM -2.9 °F -25.6 °F -9.9 °F 72% 29.87 in 6.0 mi NNW 19.6 mph 29.9 mph 0.00 in   Clear
5:53 AM -4.0 °F -25.8 °F -11.0 °F 72% 29.89 in 10.0 mi NW 17.3 mph 24.2 mph 0.00 in   Clear
6:53 AM -5.1 °F -27.2 °F -11.9 °F 72% 29.92 in 10.0 mi NW 17.3 mph - N/A   Clear
7:53 AM -7.1 °F -29.8 °F -11.9 °F 79% 29.95 in 10.0 mi NW 17.3 mph - N/A   Clear
8:53 AM -7.1 °F -26.8 °F -13.0 °F 75% 29.96 in 10.0 mi NW 12.7 mph - N/A   Clear
9:53 AM -4.0 °F -24.5 °F -14.1 °F 62% 29.97 in 10.0 mi NW 15.0 mph - N/A   Clear
10:53 AM -0.9 °F -19.9 °F -14.1 °F 54% 29.98 in 10.0 mi NW 13.8 mph 21.9 mph N/A   Clear
11:53 AM -2.0 °F -22.6 °F -13.0 °F 60% 29.97 in 10.0 mi WNW 16.1 mph - N/A   Clear
12:53 PM -0.0 °F -18.0 °F -14.1 °F 52% 29.93 in 10.0 mi NW 12.7 mph - N/A   Clear
1:53 PM 1.0 °F -19.3 °F -14.1 °F 49% 29.91 in 10.0 mi WNW 17.3 mph - N/A   Clear
2:53 PM 1.0 °F -17.3 °F -14.1 °F 49% 29.88 in 10.0 mi WNW 13.8 mph - N/A   Clear
3:53 PM -0.0 °F -17.1 °F -14.1 °F 52% 29.86 in 10.0 mi West 11.5 mph - N/A   Clear
4:53 PM 1.0 °F -10.3 °F -14.1 °F 49% 29.83 in 10.0 mi West 5.8 mph - N/A   Overcast
5:53 PM -0.0 °F -13.0 °F -11.9 °F 57% 29.77 in 10.0 mi SW 6.9 mph - N/A   Overcast
6:53 PM -0.0 °F -11.6 °F -11.9 °F 57% 29.73 in 10.0 mi South 5.8 mph - N/A   Overcast
7:10 PM -0.0 °F -14.2 °F -9.9 °F 63% 29.60 in 2.5 mi SW 8.1 mph - 0.00 in Snow Light Snow
7:24 PM -0.0 °F -13.0 °F -7.1 °F 72% 29.60 in 1.2 mi SW 6.9 mph - 0.00 in Snow Light Snow
7:53 PM -0.9 °F -12.7 °F -5.1 °F 83% 29.72 in 1.0 mi SSW 5.8 mph - 0.01 in Snow Light Snow
8:53 PM -0.9 °F -14.1 °F -5.1 °F 83% 29.67 in 1.5 mi SE 6.9 mph - 0.01 in Snow Light Snow
9:38 PM -0.9 °F -15.3 °F -4.0 °F 87% 29.51 in 2.0 mi SE 8.1 mph - 0.00 in Snow Light Snow
9:53 PM -0.9 °F -15.3 °F -4.0 °F 87% 29.61 in 2.0 mi SE 8.1 mph - 0.00 in Snow Light Snow
10:22 PM -0.0 °F -13.0 °F -5.1 °F 79% 29.48 in 4.0 mi SE 6.9 mph - 0.01 in Snow Light Snow
10:53 PM -0.0 °F -13.0 °F -5.1 °F 79% 29.58 in 5.0 mi ESE 6.9 mph - 0.01 in Snow Light Snow
11:04 PM -0.0 °F -11.6 °F -4.0 °F 83% 29.45 in 2.0 mi ESE 5.8 mph - 0.00 in Snow Light Snow
11:11 PM -0.0 °F -11.6 °F -4.0 °F 83% 29.44 in 1.2 mi ESE 5.8 mph - 0.00 in Snow Light Snow
11:44 PM -0.0 °F -13.0 °F -4.0 °F 83% 29.43 in 2.5 mi East 6.9 mph - 0.00 in Snow Light Snow
11:53 PM -0.0 °F -11.6 °F -4.0 °F 83% 29.55 in 1.8 mi East 5.8 mph - 0.00 in Snow Light Snow